Regional Weather Roundup
Issued by NWS

Home | Current Version | Previous Version | Text Only | Print | Product List | Glossary Off
Versions: 1 2 3 4 5 6 7 8 9 10 11 12 13 14 15 16 17 18 19 20 21 22 23 24 25 26 27 28

000
ASUS45 KTFX 300610
RWRMT
MONTANA REGIONAL WEATHER ROUNDUP
NATIONAL WEATHER SERVICE GREAT FALLS MT
1200 AM MDT FRI SEP 30 2016

NOTE: "FAIR" INDICATES FEW OR NO CLOUDS BELOW 12000 FEET WITH NO
SIGNIFICANT WEATHER AND/OR OBSTRUCTIONS TO VISIBILITY.

MTZ001>007-043-300700-
WEST OF THE DIVIDE

CITY           SKY/WX    TMP DP  RH WIND       PRES   REMARKS
KALISPELL      CLEAR     46  44  93 CALM      29.99S
MISSOULA       CLEAR     66  45  46 SE8       30.02R
BUTTE          CLOUDY    55  49  80 E3        30.20F
MULLAN PASS    MOCLDY    55  41  59 NW6       30.14S
ANACONDA         N/A     61  45  55 S10       30.16R
DEER LODGE       N/A     63  45  51 S9        30.15F
EUREKA           N/A     46  43  87 CALM      29.99S
HAMILTON         N/A     66  45  45 S16       30.05S
LIBBY            N/A     50  48  93 S3        29.99R
PLAINS           N/A     50  42  73 CALM      29.99S
RONAN            N/A     47  42  82 CALM      30.04R
THOMPSON FALLS   N/A     53  49  86 CALM      30.04R
$$

MTZ008-052>055-300700-
SOUTHWEST MONTANA

CITY           SKY/WX    TMP DP  RH WIND       PRES   REMARKS
BOZEMAN        CLOUDY    53  47  79 SE8       30.16R
DILLON         CLOUDY    57  43  59 SW7       30.20S
W YELLOWSTONE  CLOUDY    45  41  87 NE5       30.32S
ENNIS          PTCLDY    57  41  54 SE5       30.26S
THREE FORKS      N/A     63  42  46 S9        30.10S
$$

MTZ009-010-012-014-046-048-049-054-300700-
EAST SLOPES AND CENTRAL MONTANA

CITY           SKY/WX    TMP DP  RH WIND       PRES   REMARKS
CUT BANK       CLEAR     46  44  93 NW8       30.05F
GREAT FALLS    CLEAR     51  47  86 SW8       30.05S
MALMSTROM AFB  CLEAR     59  50  71 W8        30.04R
HELENA         PTCLDY    60  42  51 NE9       30.07R
AUGUSTA          N/A     52  47  82 W6        30.07
BOWMANS CRNR     N/A     54  47  78 SW6       30.06
CHOTEAU          N/A     55  48  76 SW5       30.07F
CONRAD           N/A     46  46 100 NW2       30.07S
FAIRFIELD        N/A     54  47  77 NW6       30.05
POWER            N/A     49  45  86 NW3       30.05
RAYNESFORD       N/A     53  47  81 NW3       30.06
$$

MTZ011-013-016-021-045-047-050-051-300700-
NORTH CENTRAL MONTANA

CITY           SKY/WX    TMP DP  RH WIND       PRES   REMARKS
HAVRE          CLEAR     51  49  92 SW7       29.99F
LEWISTOWN      MOCLDY    59  50  72 CALM      30.06S
N BAR RANCH      N/A     57  46  67 W5        30.10F
CHINOOK          N/A     54  52  94 CALM      29.99S
DENTON           N/A     55  51  87 SW9       30.00
GEYSER           N/A     52  47  82 W6        30.07
GRASS RANGE    MOCLDY    62  49  62 W8        30.00
JUDITH GAP     MOCLDY    57  46  65 S9        30.08
ROY            MOCLDY    69  48  47 MISG      30.01
STANFORD         N/A     56  46  69 SW3       30.07
WINIFRED       MOCLDY    61  53  72 MISG      30.02
$$

MTZ017>020-022>027-061-062-300700-
NORTHEAST MONTANA

CITY           SKY/WX    TMP DP  RH WIND       PRES   REMARKS
GLASGOW        CLOUDY    61  47  59 E12       29.98F
JORDAN           N/A     54  49  83 CALM      29.99S
SIDNEY         MOCLDY    63  45  51 SE5       30.06F
WOLF POINT     CLOUDY    61  48  62 NE12      30.01F
PLENTYWOOD       N/A     57  45  62 E10       30.08F
POPLAR           N/A     63  46  55 E12       30.02F
SCOBEY           N/A     60  42  51 SE14      30.03F
$$

MTZ028>42-056>058-300700-
SOUTHCENTRAL AND SOUTHEAST MONTANA

CITY           SKY/WX    TMP DP  RH WIND       PRES   REMARKS
BAKER          CLOUDY    64  42  44 SE22G29   30.08F
BILLINGS       CLOUDY    68  49  50 W14       30.05F
LIVINGSTON     CLOUDY    66  44  45 W16G32    30.12R
MILES CITY     CLOUDY    69  48  47 S3        29.98S
BIG TIMBER     CLOUDY    66  45  45 W15G21    30.12F
EKALAKA          N/A     64  45  50 SE7       30.05F
FORSYTH          N/A     63  55  77 CALM      29.97F
HARLOWTON      MOCLDY    55  46  69 W15       30.08
LAUREL           N/A     68  46  45 S6        30.04F
ROUNDUP          N/A     59  46  61 SE2       29.96S
$$

REGIONAL REPORTS...DAKOTAS

CITY           SKY/WX    TMP DP  RH WIND       PRES   REMARKS
WILLISTON      PTCLDY    62  42  47 SE12G21   30.10F
MINOT          CLOUDY    49  45  86 E5        30.21F
DICKINSON      MOCLDY    56  41  57 SE20      30.12F
BEACH          MOCLDY    61  41  48 SE16G22   30.12S
CROSBY           N/A     57  43  58 S13       30.14F
WATFORD CITY     N/A     57  43  58 N3        30.12F
BISMARCK       PTCLDY    52  45  77 SE10      30.25S
GRAND FORKS    CLEAR     49  44  83 SE9       30.36F
FARGO          CLEAR     51  45  79 E8        30.37F
BUFFALO SD       N/A     64  42  44 S15       30.04F
RAPID CITY     MOCLDY    62  43  49 SE15      30.17F
$$

REGIONAL REPORTS...WYOMING/IDAHO/WASHINGTON

CITY           SKY/WX    TMP DP  RH WIND       PRES   REMARKS
GILLETTE       PTCLDY    63  48  58 S9        30.14S
SHERIDAN       PTCLDY    62  47  57 S3        30.07F
BUFFALO WY     CLOUDY    69  42  37 S13       30.13F
CODY           PTCLDY    62  42  47 SW6       30.18F
YELLOWSTONE LA   N/A     42  40  92 CALM      30.39S
IDAHO FALLS    PTCLDY    54  49  83 CALM      30.23S
SALMON         CLEAR     52  45  76 CALM      30.15S
BOISE          MOCLDY    74  43  32 SE21G29   29.98S
SPOKANE        MOCLDY    64  42  44 SW8       29.95F
$$

REGIONAL REPORTS...ALBERTA

CITY           SKY/WX    TMP DP  RH WIND       PRES   REMARKS
EDMONTON       CLOUDY    52  41  66 E7        30.08F
CALGARY        PTCLDY    48  43  81 SE3       30.05F
LETHBRIDGE     CLEAR     45  43  93 SW3       30.04S
MEDICINE HAT   CLEAR     54  50  87 NE7       29.99F
WATERTON GATE    N/A     36  34  93 S1          N/A
CARDSTON         N/A     46  43  87 SW6         N/A
MILK RIVER       N/A     45  43  93 NW7         N/A
$$

REGIONAL REPORTS...SASKATCHEWAN

CITY           SKY/WX    TMP DP  RH WIND       PRES   REMARKS
SWIFT CURRENT  CLEAR     50  46  87 S9        30.00F
REGINA         MOCLDY    55  45  67 SE17      30.10S
SASKATOON      CLEAR     50  50 100 NE12      30.06F
CYPRESS HILLS    N/A     57  46  67 SE3         N/A
VAL MARIE        N/A     57  46  67 NE3         N/A
ROCKGLEN         N/A     55  46  71 SE12G17     N/A
$$




USA.gov is the U.S. government's official web portal to all federal, state and local government web resources and services.